Weather in Porosozero

Russia / Republic of Karelia     62°43′08″N   32°43′55″E
В апреле 2022 года жителям России запретили посещать сайт meteo.paraplan.net по решению Генеральной прокуратуры. Аудитория сайта уменьшилась в 10 раз. Владельцы сайта не видят смысла в поддержке погодного сервера в таких условиях. Сайт будет закрыт в октябре.
temp.,
°C
wind,
m/s
gust,
m/s
humid.,
%
clouds,
%
prec.,
mm/h
press.,
hPa
HPBL,
m
4 october, tue
tue400:00+4ne61485100 0.5 1008572
03:00+4ne51295100 2.4 1006620
06:00+5ne41097100 4.8 1006461
09:00+5ene2698100 5.1 1007237
12:00+9se368293 0.0 1007699
15:00+9ese2893100 0.0 1008598
18:00+8ese3794100 0.0 1009364
21:00+8ese3798100 0.0 1009272
5 october, wed
wed500:00+7ese2698100 0.0 1010218
03:00+5e239945 0.0 101073
06:00+7ese2799100 0.0 1010356
09:00+7sse259489 0.0 1010390
12:00+9sse23755 0.0 1010619
15:00+10ssw236690 0.0 1010910
18:00+7ssw248090 0.0 101098
21:00+5s268733 0.0 1010146
6 october, thu
thu600:00+3s27961 0.0 1011170
03:00+5sse3996100 0.0 1010302
06:00+6s41296100 0.0 1008524
09:00+7s51496100 0.0 1005552
12:00+8s61796100 0.8 1002794
15:00+10ssw61395100 0.8 999982
18:00+10ssw51297100 1.7 997605
21:00+10sw41098100 8.7 995729
7 october, fri
fri700:00+7wsw31190100 3.6 999423
03:00+7wsw5129150 3.6 999621
06:00+7wsw51186100 0.0 1000897
09:00+7w51288100 0.1 1001933
12:00+9w51278100 0.0 10031137
15:00+9w61080100 0.2 1005872
18:00+9w5107395 0.0 10071022
21:00+7wsw41291100 0.0 1009573
8 october, sat
sat800:00+6sw41293100 0.0 1009415
03:00+6ssw41296100 0.0 1008433
06:00+8ssw51396100 1.1 1006788
09:00+9ssw61397100 2.0 1004882
12:00+9ssw61393100 0.1 1004924
15:00+8ssw61385100 0.2 10021142
18:00+9ssw71585100 0.3 10001509
21:00+9ssw61390100 0.9 1000936